Location: Gorrie
(43.8742°N, 81.1087°W)
Time: 23:41:21
(UTC+00:00)

USA 234 - Pass Details

Date: 09 December 2025
Orbit: 1102 x 1106 km, 123.0° (Epoch: 4 January)

Event Time Altitude Azimuth Distance (km) Brightness Sun altitude
Rises 11:09:58 0° 75° (ENE) 3,927 7.2 -16.8°
Reaches altitude 10° 11:12:46 10° 65° (ENE) 2,969 6.2 -16.3°
Maximum altitude 11:18:14 29° 8° (N) 1,895 4.4 -15.4°
Enters shadow 11:22:33 15° 318° (NW) 2,624 4.7 -14.6°
